| time (UTC) | temp F | wind direction | speed knots | gust knots | rain 1hr in | rain 24hr in | rain mn in | humidity % | barometer mb |
| 20260508004024 | 55 | 265 | 0.9 | 3.5 | 0.00 | 0.02 | 0.02 | 41 | 1007.1 |
| 20260508003503 | 55 | 263 | 1.7 | 2.6 | 0.00 | 0.02 | 0.02 | 40 | 1006.7 |
| 20260508003003 | 55 | 270 | 1.7 | 4.3 | 0.00 | 0.02 | 0.02 | 39 | 1006.7 |
| 20260508002524 | 56 | 275 | 1.7 | 4.3 | 0.00 | 0.02 | 0.02 | 43 | 1006.7 |
| 20260508002003 | 56 | 274 | 1.7 | 3.5 | 0.00 | 0.02 | 0.02 | 41 | 1006.7 |
| 20260508001504 | 56 | 277 | 0.9 | 3.5 | 0.00 | 0.02 | 0.02 | 42 | 1006.7 |
| 20260508001003 | 56 | 284 | 1.7 | 4.3 | 0.00 | 0.02 | 0.02 | 41 | 1006.7 |
| 20260508000504 | 56 | 284 | 1.7 | 7.8 | 0.00 | 0.02 | 0.02 | 39 | 1006.7 |
| 20260508000003 | 57 | 290 | 3.5 | 8.7 | 0.00 | 0.02 | 0.02 | 39 | 1006.4 |
| 20260507235503 | 57 | 293 | 3.5 | 8.7 | 0.00 | 0.02 | 0.02 | 37 | 1006.4 |
| 20260507235003 | 57 | 288 | 3.5 | 6.1 | 0.00 | 0.02 | 0.02 | 40 | 1006.4 |
| 20260507234503 | 58 | 284 | 3.5 | 8.7 | 0.00 | 0.02 | 0.02 | 41 | 1006.4 |
| 20260507234003 | 58 | 284 | 4.3 | 13.0 | 0.00 | 0.02 | 0.02 | 38 | 1006.4 |
| 20260507233503 | 58 | 284 | 4.3 | 13.0 | 0.00 | 0.02 | 0.02 | 40 | 1006.4 |
| 20260507233003 | 58 | 284 | 3.5 | 6.1 | 0.00 | 0.03 | 0.02 | 37 | 1006.4 |
| 20260507232503 | 59 | 284 | 3.5 | 7.0 | 0.00 | 0.05 | 0.02 | 36 | 1006.4 |
| 20260507232024 | 59 | 287 | 4.3 | 8.7 | 0.00 | 0.07 | 0.02 | 35 | 1006.0 |
| 20260507231503 | 59 | 284 | 4.3 | 8.7 | 0.00 | 0.07 | 0.02 | 37 | 1006.0 |
| 20260507231024 | 60 | 285 | 5.2 | 9.6 | 0.00 | 0.08 | 0.02 | 39 | 1006.0 |
| 20260507230503 | 60 | 285 | 5.2 | 9.6 | 0.00 | 0.09 | 0.02 | 36 | 1006.0 |
| 20260507230003 | 60 | 281 | 5.2 | 11.3 | 0.00 | 0.10 | 0.02 | 34 | 1006.0 |
| 20260507225524 | 59 | 286 | 5.2 | 11.3 | 0.00 | 0.11 | 0.02 | 36 | 1006.0 |
| 20260507225004 | 60 | 290 | 4.3 | 11.3 | 0.00 | 0.13 | 0.02 | 35 | 1006.0 |
| 20260507224504 | 60 | 282 | 4.3 | 7.0 | 0.00 | 0.14 | 0.02 | 35 | 1005.7 |
| 20260507224003 | 60 | 275 | 5.2 | 11.3 | 0.00 | 0.15 | 0.02 | 36 | 1006.0 |
| 20260507223503 | 60 | 276 | 5.2 | 14.8 | 0.00 | 0.16 | 0.02 | 34 | 1005.7 |
| 20260507223003 | 61 | 271 | 4.3 | 14.8 | 0.00 | 0.16 | 0.02 | 34 | 1005.7 |
| 20260507222503 | 61 | 262 | 4.3 | 11.3 | 0.00 | 0.17 | 0.02 | 34 | 1005.4 |
| 20260507222003 | 61 | 269 | 4.3 | 13.0 | 0.00 | 0.17 | 0.02 | 34 | 1005.7 |
| 20260507221503 | 61 | 289 | 6.1 | 14.8 | 0.00 | 0.18 | 0.02 | 34 | 1005.7 |
| 20260507221003 | 61 | 301 | 7.0 | 14.8 | 0.00 | 0.19 | 0.02 | 33 | 1005.4 |
| 20260507220524 | 61 | 305 | 7.8 | 18.2 | 0.00 | 0.20 | 0.02 | 36 | 1005.4 |
| 20260507220003 | 60 | 295 | 7.8 | 18.2 | 0.00 | 0.20 | 0.02 | 39 | 1005.4 |
| 20260507215503 | 61 | 272 | 5.2 | 13.9 | 0.00 | 0.20 | 0.02 | 34 | 1005.4 |
| 20260507215024 | 61 | 278 | 5.2 | 13.9 | 0.00 | 0.20 | 0.02 | 33 | 1005.4 |
| 20260507214524 | 61 | 288 | 7.0 | 15.6 | 0.00 | 0.20 | 0.02 | 34 | 1005.4 |
| 20260507214003 | 60 | 294 | 7.0 | 15.6 | 0.00 | 0.20 | 0.02 | 35 | 1005.4 |
| 20260507213524 | 60 | 297 | 8.7 | 20.0 | 0.00 | 0.20 | 0.02 | 35 | 1005.4 |
| 20260507213003 | 60 | 296 | 9.6 | 20.0 | 0.00 | 0.21 | 0.02 | 35 | 1005.0 |
| 20260507212503 | 61 | 275 | 5.2 | 16.5 | 0.00 | 0.21 | 0.02 | 37 | 1005.0 |
| 20260507212003 | 62 | 266 | 4.3 | 13.0 | 0.00 | 0.21 | 0.02 | 34 | 1005.4 |
| 20260507211503 | 62 | 294 | 7.0 | 14.8 | 0.00 | 0.22 | 0.02 | 36 | 1005.0 |
| 20260507211003 | 61 | 312 | 9.6 | 17.4 | 0.00 | 0.22 | 0.02 | 35 | 1005.4 |
| 20260507210503 | 60 | 313 | 9.6 | 17.4 | 0.00 | 0.22 | 0.02 | 34 | 1005.4 |
| 20260507210005 | 61 | 287 | 4.3 | 7.0 | 0.00 | 0.23 | 0.02 | 37 | 1005.4 |
| 20260507205003 | 61 | 276 | 6.1 | 13.0 | 0.00 | 0.26 | 0.02 | 35 | 1005.4 |
| 20260507204503 | 62 | 289 | 8.7 | 16.5 | 0.00 | 0.26 | 0.02 | 33 | 1005.4 |
| 20260507204024 | 61 | 307 | 8.7 | 16.5 | 0.00 | 0.27 | 0.02 | 33 | 1005.4 |
| 20260507203503 | 61 | 301 | 7.0 | 12.2 | 0.00 | 0.28 | 0.02 | 39 | 1005.0 |
| 20260507203024 | 61 | 282 | 7.0 | 12.2 | 0.00 | 0.29 | 0.02 | 33 | 1005.0 |
| 20260507202524 | 61 | 271 | 6.1 | 13.0 | 0.00 | 0.30 | 0.02 | 34 | 1005.0 |
| 20260507202003 | 62 | 252 | 4.3 | 13.0 | 0.00 | 0.32 | 0.02 | 33 | 1005.0 |
| 20260507201503 | 63 | 281 | 5.2 | 13.0 | 0.00 | 0.33 | 0.02 | 34 | 1005.0 |
| 20260507201024 | 61 | 292 | 7.8 | 15.6 | 0.00 | 0.33 | 0.02 | 35 | 1005.0 |
| 20260507200503 | 61 | 288 | 5.2 | 15.6 | 0.00 | 0.34 | 0.02 | 36 | 1005.4 |
| 20260507200024 | 62 | 270 | 3.5 | 13.0 | 0.00 | 0.34 | 0.02 | 34 | 1005.0 |
| 20260507195503 | 61 | 278 | 5.2 | 13.0 | 0.00 | 0.35 | 0.02 | 33 | 1005.4 |
| 20260507195003 | 61 | 291 | 6.1 | 13.9 | 0.00 | 0.35 | 0.02 | 37 | 1005.4 |
| 20260507194503 | 60 | 293 | 7.8 | 14.8 | 0.00 | 0.36 | 0.02 | 35 | 1005.4 |
| 20260507194024 | 60 | 290 | 7.0 | 17.4 | 0.00 | 0.36 | 0.02 | 36 | 1005.4 |
| 20260507193503 | 60 | 295 | 9.6 | 19.1 | 0.00 | 0.37 | 0.02 | 36 | 1005.4 |
| 20260507193003 | 60 | 297 | 9.6 | 19.1 | 0.00 | 0.37 | 0.02 | 36 | 1005.7 |
| 20260507192504 | 61 | 290 | 5.2 | 14.8 | 0.00 | 0.37 | 0.02 | 36 | 1005.4 |
| 20260507192003 | 62 | 269 | 4.3 | 12.2 | 0.00 | 0.37 | 0.02 | 40 | 1005.7 |
| 20260507191524 | 61 | 277 | 6.1 | 13.9 | 0.00 | 0.38 | 0.02 | 38 | 1005.7 |
| 20260507191003 | 61 | 285 | 6.1 | 13.9 | 0.00 | 0.38 | 0.02 | 37 | 1005.7 |
| 20260507190503 | 61 | 306 | 7.8 | 16.5 | 0.00 | 0.38 | 0.02 | 38 | 1005.7 |
| 20260507190024 | 60 | 311 | 8.7 | 16.5 | 0.00 | 0.38 | 0.02 | 42 | 1006.0 |
| 20260507185503 | 60 | 307 | 7.0 | 13.9 | 0.00 | 0.38 | 0.02 | 40 | 1005.7 |
| 20260507185003 | 59 | 293 | 7.8 | 16.5 | 0.00 | 0.38 | 0.02 | 41 | 1005.7 |
| 20260507184503 | 60 | 291 | 8.7 | 19.1 | 0.00 | 0.38 | 0.02 | 38 | 1006.0 |
| 20260507184024 | 60 | 297 | 7.0 | 19.1 | 0.00 | 0.38 | 0.02 | 41 | 1006.0 |
| 20260507183503 | 60 | 301 | 7.8 | 16.5 | 0.00 | 0.38 | 0.02 | 37 | 1006.0 |
| 20260507183024 | 60 | 286 | 7.8 | 16.5 | 0.00 | 0.38 | 0.02 | 40 | 1005.7 |
| 20260507182524 | 61 | 284 | 7.8 | 14.8 | 0.00 | 0.38 | 0.02 | 36 | 1006.0 |
| 20260507182003 | 60 | 291 | 7.8 | 17.4 | 0.00 | 0.38 | 0.02 | 39 | 1006.0 |
| 20260507181503 | 60 | 295 | 7.8 | 18.2 | 0.00 | 0.38 | 0.02 | 40 | 1005.7 |
| 20260507181003 | 60 | 311 | 7.8 | 20.9 | 0.00 | 0.38 | 0.02 | 40 | 1006.0 |
| 20260507180524 | 60 | 312 | 7.0 | 20.9 | 0.00 | 0.38 | 0.02 | 40 | 1006.0 |
| 20260507180024 | 60 | 297 | 7.0 | 18.2 | 0.00 | 0.38 | 0.02 | 41 | 1006.0 |
| 20260507175503 | 61 | 304 | 8.7 | 18.2 | 0.00 | 0.38 | 0.02 | 38 | 1006.0 |
| 20260507175003 | 59 | 302 | 7.8 | 18.2 | 0.00 | 0.38 | 0.02 | 43 | 1006.0 |
| 20260507174504 | 60 | 292 | 6.1 | 13.9 | 0.00 | 0.38 | 0.02 | 39 | 1006.0 |
| 20260507174003 | 60 | 281 | 6.1 | 18.2 | 0.00 | 0.38 | 0.02 | 39 | 1005.7 |
| 20260507173503 | 60 | 273 | 6.1 | 18.2 | 0.00 | 0.38 | 0.02 | 38 | 1006.0 |
| 20260507173003 | 61 | 269 | 5.2 | 16.5 | 0.00 | 0.38 | 0.02 | 39 | 1006.0 |
| 20260507172524 | 60 | 265 | 4.3 | 13.9 | 0.00 | 0.38 | 0.02 | 39 | 1006.0 |
| 20260507172003 | 60 | 259 | 5.2 | 14.8 | 0.00 | 0.38 | 0.02 | 40 | 1006.4 |
| 20260507171503 | 60 | 241 | 5.2 | 14.8 | 0.00 | 0.38 | 0.02 | 42 | 1006.0 |
| 20260507171003 | 61 | 259 | 7.0 | 16.5 | 0.00 | 0.38 | 0.02 | 39 | 1006.0 |
| 20260507170503 | 59 | 279 | 7.8 | 16.5 | 0.00 | 0.38 | 0.02 | 42 | 1006.4 |
| 20260507170003 | 59 | 267 | 6.1 | 16.5 | 0.00 | 0.38 | 0.02 | 42 | 1006.4 |
| 20260507165504 | 61 | 267 | 5.2 | 16.5 | 0.00 | 0.38 | 0.02 | 43 | 1006.4 |
| 20260507165003 | 59 | 275 | 5.2 | 16.5 | 0.00 | 0.38 | 0.02 | 45 | 1006.4 |
| 20260507164503 | 59 | 281 | 5.2 | 16.5 | 0.00 | 0.38 | 0.02 | 47 | 1006.4 |
| 20260507164003 | 58 | 293 | 5.2 | 12.2 | 0.00 | 0.38 | 0.02 | 52 | 1006.7 |
| 20260507163524 | 58 | 281 | 5.2 | 12.2 | 0.00 | 0.38 | 0.02 | 52 | 1006.7 |
| 20260507163003 | 58 | 273 | 5.2 | 11.3 | 0.00 | 0.38 | 0.02 | 54 | 1006.7 |
| 20260507162524 | 58 | 274 | 3.5 | 11.3 | 0.00 | 0.38 | 0.02 | 58 | 1006.7 |
| 20260507162003 | 60 | 274 | 3.5 | 11.3 | 0.00 | 0.38 | 0.02 | 53 | 1006.7 |
| 20260507161503 | 58 | 278 | 5.2 | 11.3 | 0.00 | 0.38 | 0.02 | 54 | 1006.7 |
| 20260507161024 | 57 | 268 | 4.3 | 13.0 | 0.00 | 0.38 | 0.02 | 59 | 1006.7 |
| 20260507160503 | 58 | 260 | 3.5 | 13.0 | 0.00 | 0.38 | 0.02 | 57 | 1006.7 |
| 20260507160003 | 58 | 269 | 4.3 | 13.0 | 0.00 | 0.38 | 0.02 | 58 | 1006.7 |
| 20260507155503 | 58 | 295 | 7.0 | 15.6 | 0.00 | 0.38 | 0.02 | 55 | 1006.7 |
| 20260507155003 | 57 | 318 | 6.1 | 15.6 | 0.00 | 0.38 | 0.02 | 59 | 1006.7 |
| 20260507154504 | 58 | 281 | 4.3 | 11.3 | 0.00 | 0.38 | 0.02 | 59 | 1007.1 |
| 20260507154003 | 58 | 280 | 7.0 | 14.8 | 0.00 | 0.38 | 0.02 | 56 | 1007.1 |
| 20260507153504 | 57 | 299 | 7.8 | 15.6 | 0.00 | 0.38 | 0.02 | 57 | 1007.1 |
| 20260507153024 | 57 | 297 | 7.0 | 15.6 | 0.00 | 0.38 | 0.02 | 60 | 1007.1 |
| 20260507152503 | 57 | 286 | 6.1 | 12.2 | 0.00 | 0.38 | 0.02 | 57 | 1007.1 |
| 20260507152003 | 57 | 286 | 5.2 | 12.2 | 0.00 | 0.38 | 0.02 | 56 | 1007.4 |
| 20260507151524 | 57 | 292 | 4.3 | 12.2 | 0.00 | 0.38 | 0.02 | 58 | 1007.1 |
| 20260507151024 | 57 | 302 | 3.5 | 12.2 | 0.00 | 0.38 | 0.02 | 53 | 1007.4 |
| 20260507150503 | 58 | 286 | 2.6 | 8.7 | 0.00 | 0.38 | 0.02 | 55 | 1007.4 |
| 20260507150004 | 58 | 282 | 5.2 | 15.6 | 0.00 | 0.38 | 0.02 | 54 | 1007.4 |
| 20260507145503 | 57 | 292 | 6.1 | 16.5 | 0.00 | 0.38 | 0.02 | 54 | 1007.7 |
| 20260507145004 | 57 | 296 | 5.2 | 16.5 | 0.00 | 0.38 | 0.02 | 57 | 1007.7 |
| 20260507144503 | 57 | 293 | 5.2 | 16.5 | 0.00 | 0.38 | 0.02 | 56 | 1007.7 |
| 20260507144003 | 57 | 300 | 4.3 | 13.0 | 0.00 | 0.38 | 0.02 | 55 | 1007.7 |
| 20260507143503 | 57 | 303 | 4.3 | 13.9 | 0.00 | 0.38 | 0.02 | 56 | 1007.4 |
| 20260507143003 | 56 | 286 | 6.1 | 13.9 | 0.00 | 0.38 | 0.02 | 54 | 1007.4 |
| 20260507142503 | 57 | 300 | 7.8 | 15.6 | 0.00 | 0.38 | 0.02 | 55 | 1007.1 |
| 20260507142003 | 55 | 322 | 7.8 | 15.6 | 0.00 | 0.38 | 0.02 | 61 | 1007.4 |
| 20260507141524 | 56 | 330 | 7.0 | 12.2 | 0.00 | 0.38 | 0.02 | 59 | 1007.4 |
| 20260507141003 | 55 | 321 | 7.0 | 14.8 | 0.00 | 0.38 | 0.02 | 61 | 1007.4 |
| 20260507140503 | 55 | 313 | 5.2 | 14.8 | 0.00 | 0.38 | 0.02 | 59 | 1007.4 |
| 20260507140003 | 55 | 309 | 4.3 | 11.3 | 0.00 | 0.38 | 0.02 | 61 | 1007.4 |
| 20260507135504 | 55 | 313 | 6.1 | 12.2 | 0.00 | 0.38 | 0.02 | 61 | 1007.4 |
| 20260507135004 | 54 | 320 | 5.2 | 12.2 | 0.00 | 0.38 | 0.02 | 60 | 1007.4 |
| 20260507134503 | 54 | 303 | 4.3 | 11.3 | 0.00 | 0.38 | 0.02 | 61 | 1007.4 |
| 20260507134003 | 55 | 296 | 4.3 | 11.3 | 0.00 | 0.38 | 0.02 | 62 | 1007.4 |
| 20260507133503 | 54 | 305 | 5.2 | 9.6 | 0.00 | 0.38 | 0.02 | 62 | 1007.7 |
| 20260507133003 | 54 | 296 | 5.2 | 10.4 | 0.00 | 0.38 | 0.02 | 63 | 1007.7 |
| 20260507132504 | 54 | 307 | 6.1 | 10.4 | 0.00 | 0.38 | 0.02 | 65 | 1007.7 |
| 20260507132003 | 53 | 315 | 7.0 | 12.2 | 0.00 | 0.38 | 0.02 | 67 | 1008.1 |
| 20260507131503 | 53 | 301 | 7.0 | 12.2 | 0.00 | 0.38 | 0.02 | 67 | 1007.7 |
| 20260507131003 | 53 | 295 | 7.0 | 12.2 | 0.00 | 0.38 | 0.02 | 69 | 1008.1 |
| 20260507130524 | 52 | 307 | 6.1 | 11.3 | 0.00 | 0.38 | 0.02 | 69 | 1008.1 |
| 20260507130003 | 52 | 328 | 7.0 | 12.2 | 0.00 | 0.38 | 0.02 | 71 | 1008.1 |
| 20260507125503 | 52 | 319 | 7.8 | 12.2 | 0.00 | 0.38 | 0.02 | 74 | 1008.1 |
| 20260507125003 | 52 | 309 | 8.7 | 14.8 | 0.00 | 0.38 | 0.02 | 71 | 1008.1 |
| 20260507124503 | 51 | 307 | 7.8 | 14.8 | 0.00 | 0.38 | 0.02 | 71 | 1008.1 |
| 20260507124003 | 51 | 303 | 7.8 | 15.6 | 0.00 | 0.38 | 0.02 | 71 | 1008.1 |
| 20260507123524 | 51 | 309 | 8.7 | 15.6 | 0.00 | 0.38 | 0.02 | 70 | 1008.1 |
| 20260507123003 | 51 | 316 | 8.7 | 15.6 | 0.00 | 0.38 | 0.02 | 72 | 1008.1 |
| 20260507122503 | 51 | 311 | 8.7 | 13.9 | 0.00 | 0.38 | 0.02 | 74 | 1008.1 |
| 20260507122004 | 51 | 298 | 7.0 | 13.9 | 0.00 | 0.38 | 0.02 | 73 | 1008.1 |
| 20260507121503 | 51 | 286 | 5.2 | 10.4 | 0.00 | 0.38 | 0.02 | 75 | 1008.4 |
| 20260507121003 | 50 | 302 | 6.1 | 11.3 | 0.00 | 0.38 | 0.02 | 76 | 1008.4 |
| 20260507120503 | 50 | 311 | 6.1 | 11.3 | 0.00 | 0.38 | 0.02 | 76 | 1008.4 |
| 20260507120024 | 50 | 311 | 4.3 | 10.4 | 0.00 | 0.38 | 0.02 | 77 | 1008.1 |
| 20260507115503 | 50 | 308 | 3.5 | 6.1 | 0.00 | 0.38 | 0.02 | 79 | 1008.1 |
| 20260507115003 | 50 | 310 | 3.5 | 7.8 | 0.00 | 0.38 | 0.02 | 80 | 1008.1 |
| 20260507114503 | 49 | 302 | 3.5 | 7.8 | 0.00 | 0.38 | 0.02 | 80 | 1008.4 |
| 20260507114004 | 49 | 296 | 3.5 | 7.0 | 0.00 | 0.38 | 0.02 | 81 | 1008.1 |
| 20260507113503 | 49 | 310 | 4.3 | 8.7 | 0.00 | 0.38 | 0.02 | 82 | 1008.1 |
| 20260507113003 | 49 | 317 | 6.1 | 9.6 | 0.00 | 0.38 | 0.02 | 82 | 1007.7 |
| 20260507112524 | 49 | 315 | 6.1 | 9.6 | 0.00 | 0.38 | 0.02 | 82 | 1008.1 |
| 20260507112003 | 49 | 317 | 4.3 | 7.8 | 0.00 | 0.38 | 0.02 | 82 | 1007.7 |
| 20260507111504 | 49 | 312 | 4.3 | 7.0 | 0.00 | 0.38 | 0.02 | 82 | 1007.7 |
| 20260507111003 | 49 | 312 | 3.5 | 7.8 | 0.00 | 0.38 | 0.02 | 84 | 1007.7 |
| 20260507110524 | 49 | 323 | 4.3 | 7.8 | 0.00 | 0.38 | 0.02 | 83 | 1008.1 |
| 20260507110005 | 49 | 323 | 5.2 | 7.8 | 0.00 | 0.38 | 0.02 | 83 | 1008.1 |
| 20260507105503 | 49 | 325 | 5.2 | 7.8 | 0.00 | 0.38 | 0.02 | 84 | 1007.7 |
| 20260507105003 | 48 | 323 | 6.1 | 9.6 | 0.00 | 0.38 | 0.02 | 83 | 1007.7 |
| 20260507104503 | 49 | 322 | 7.0 | 13.0 | 0.00 | 0.38 | 0.02 | 84 | 1007.7 |
| 20260507104003 | 49 | 323 | 7.8 | 13.0 | 0.00 | 0.38 | 0.02 | 83 | 1007.7 |
| 20260507103504 | 49 | 324 | 8.7 | 13.0 | 0.00 | 0.38 | 0.02 | 83 | 1007.4 |
| 20260507103003 | 49 | 325 | 7.8 | 13.0 | 0.00 | 0.38 | 0.02 | 84 | 1007.1 |
| 20260507102524 | 49 | 322 | 7.8 | 13.0 | 0.00 | 0.38 | 0.02 | 83 | 1007.1 |
| 20260507102003 | 49 | 318 | 7.0 | 13.0 | 0.00 | 0.38 | 0.02 | 83 | 1007.4 |
| 20260507101504 | 49 | 316 | 7.0 | 11.3 | 0.00 | 0.38 | 0.02 | 84 | 1007.7 |
| 20260507101025 | 49 | 317 | 7.8 | 13.0 | 0.00 | 0.38 | 0.02 | 83 | 1007.4 |
| 20260507100503 | 49 | 318 | 6.1 | 13.0 | 0.00 | 0.38 | 0.02 | 82 | 1007.4 |
| 20260507100003 | 49 | 307 | 5.2 | 9.6 | 0.00 | 0.38 | 0.02 | 82 | 1007.4 |
| 20260507095503 | 49 | 298 | 5.2 | 11.3 | 0.00 | 0.38 | 0.02 | 84 | 1007.7 |
| 20260507095003 | 49 | 301 | 5.2 | 11.3 | 0.00 | 0.38 | 0.02 | 84 | 1007.7 |
| 20260507094524 | 49 | 296 | 4.3 | 9.6 | 0.00 | 0.38 | 0.02 | 83 | 1007.4 |
| 20260507094003 | 49 | 292 | 3.5 | 7.8 | 0.00 | 0.38 | 0.02 | 85 | 1007.7 |
| 20260507093503 | 49 | 303 | 3.5 | 7.8 | 0.00 | 0.38 | 0.02 | 86 | 1007.4 |
| 20260507093004 | 49 | 296 | 3.5 | 6.1 | 0.00 | 0.38 | 0.02 | 86 | 1007.1 |
| 20260507092503 | 49 | 288 | 3.5 | 7.0 | 0.00 | 0.38 | 0.02 | 86 | 1007.7 |
| 20260507092003 | 49 | 283 | 2.6 | 8.7 | 0.00 | 0.38 | 0.02 | 86 | 1007.4 |
| 20260507091503 | 49 | 276 | 2.6 | 8.7 | 0.00 | 0.38 | 0.02 | 86 | 1007.4 |
| 20260507091003 | 49 | 278 | 2.6 | 7.0 | 0.00 | 0.38 | 0.02 | 87 | 1007.7 |
| 20260507090503 | 49 | 284 | 3.5 | 7.0 | 0.00 | 0.38 | 0.02 | 87 | 1007.1 |
| 20260507090024 | 49 | 290 | 3.5 | 7.8 | 0.01 | 0.38 | 0.02 | 87 | 1007.1 |
| 20260507085504 | 49 | 297 | 5.2 | 8.7 | 0.01 | 0.38 | 0.02 | 87 | 1007.1 |
| 20260507085003 | 49 | 296 | 5.2 | 9.6 | 0.01 | 0.38 | 0.02 | 86 | 1007.1 |
| 20260507084524 | 49 | 291 | 4.3 | 9.6 | 0.01 | 0.38 | 0.02 | 87 | 1007.1 |
| 20260507084003 | 49 | 295 | 4.3 | 9.6 | 0.01 | 0.38 | 0.02 | 86 | 1007.4 |
| 20260507083524 | 49 | 296 | 5.2 | 9.6 | 0.01 | 0.38 | 0.02 | 86 | 1006.7 |
| 20260507083004 | 49 | 296 | 4.3 | 7.8 | 0.01 | 0.38 | 0.02 | 85 | 1007.1 |
| 20260507082503 | 50 | 296 | 4.3 | 7.8 | 0.01 | 0.38 | 0.02 | 86 | 1006.7 |
| 20260507082003 | 50 | 299 | 3.5 | 7.8 | 0.01 | 0.38 | 0.02 | 86 | 1006.7 |
| 20260507081503 | 49 | 296 | 3.5 | 7.8 | 0.01 | 0.38 | 0.02 | 87 | 1006.7 |
| 20260507081024 | 49 | 286 | 4.3 | 10.4 | 0.01 | 0.38 | 0.02 | 87 | 1006.7 |
| 20260507080503 | 50 | 291 | 5.2 | 10.4 | 0.01 | 0.38 | 0.02 | 86 | 1007.4 |
| 20260507080004 | 50 | 294 | 5.2 | 10.4 | 0.00 | 0.37 | 0.01 | 85 | 1007.4 |
| 20260507075503 | 50 | 285 | 4.3 | 10.4 | 0.00 | 0.37 | 0.01 | 84 | 1007.1 |
| 20260507075003 | 50 | 287 | 5.2 | 8.7 | 0.00 | 0.37 | 0.01 | 83 | 1007.4 |
| 20260507074503 | 50 | 295 | 5.2 | 8.7 | 0.00 | 0.37 | 0.01 | 84 | 1007.4 |
| 20260507074003 | 50 | 297 | 5.2 | 10.4 | 0.00 | 0.37 | 0.01 | 84 | 1007.1 |
| 20260507073503 | 50 | 301 | 6.1 | 11.3 | 0.00 | 0.37 | 0.01 | 84 | 1006.7 |
| 20260507073004 | 50 | 299 | 6.1 | 12.2 | 0.00 | 0.37 | 0.01 | 85 | 1007.1 |
| 20260507072503 | 51 | 301 | 7.0 | 14.8 | 0.00 | 0.37 | 0.01 | 84 | 1006.7 |
| 20260507072003 | 51 | 300 | 7.8 | 14.8 | 0.00 | 0.37 | 0.01 | 84 | 1006.7 |
| 20260507071503 | 51 | 298 | 7.8 | 13.9 | 0.00 | 0.37 | 0.01 | 85 | 1006.7 |
| 20260507071003 | 51 | 297 | 7.0 | 13.9 | 0.00 | 0.37 | 0.01 | 83 | 1006.7 |
| 20260507070503 | 51 | 289 | 6.1 | 12.2 | 0.00 | 0.37 | 0.01 | 84 | 1006.7 |
| 20260507070008 | 51 | 287 | 5.2 | 11.3 | 0.00 | 0.37 | 0.01 | 84 | 1006.7 |
| 20260507065503 | 51 | 285 | 5.2 | 8.7 | 0.00 | 0.37 | 0.01 | 85 | 1006.7 |
| 20260507065003 | 51 | 290 | 4.3 | 8.7 | 0.00 | 0.37 | 0.01 | 86 | 1006.7 |
| 20260507064503 | 51 | 286 | 2.6 | 8.7 | 0.00 | 0.37 | 0.01 | 88 | 1006.7 |
| 20260507064003 | 51 | 277 | 2.6 | 6.1 | 0.00 | 0.37 | 0.01 | 89 | 1006.4 |
| 20260507063524 | 52 | 295 | 2.6 | 5.2 | 0.00 | 0.37 | 0.01 | 90 | 1006.4 |
| 20260507063003 | 52 | 308 | 3.5 | 5.2 | 0.00 | 0.37 | 0.01 | 90 | 1006.0 |
| 20260507062525 | 52 | 307 | 2.6 | 5.2 | 0.00 | 0.37 | 0.01 | 90 | 1006.0 |
| 20260507062003 | 52 | 290 | 1.7 | 5.2 | 0.00 | 0.37 | 0.01 | 90 | 1006.0 |
| 20260507061503 | 52 | 293 | 2.6 | 6.1 | 0.00 | 0.37 | 0.01 | 90 | 1006.4 |
| 20260507061003 | 52 | 292 | 3.5 | 7.0 | 0.00 | 0.37 | 0.01 | 89 | 1006.4 |
| 20260507060503 | 52 | 290 | 3.5 | 7.8 | 0.00 | 0.37 | 0.01 | 89 | 1006.4 |
| 20260507060025 | 52 | 293 | 4.3 | 7.8 | 0.00 | 0.37 | 0.01 | 88 | 1006.4 |
| 20260507055524 | 52 | 295 | 4.3 | 8.7 | 0.00 | 0.37 | 0.01 | 89 | 1006.4 |
| 20260507055003 | 52 | 293 | 4.3 | 10.4 | 0.00 | 0.37 | 0.01 | 89 | 1006.4 |
| 20260507054504 | 52 | 291 | 5.2 | 10.4 | 0.00 | 0.37 | 0.01 | 88 | 1006.7 |
| 20260507054003 | 53 | 292 | 3.5 | 7.8 | 0.00 | 0.37 | 0.01 | 89 | 1006.7 |
| 20260507053524 | 53 | 286 | 2.6 | 7.0 | 0.00 | 0.37 | 0.01 | 90 | 1006.4 |
| 20260507053004 | 52 | 289 | 2.6 | 6.1 | 0.00 | 0.37 | 0.01 | 90 | 1006.7 |
| 20260507052524 | 53 | 293 | 2.6 | 6.1 | 0.00 | 0.37 | 0.01 | 91 | 1007.1 |
| 20260507052003 | 53 | 284 | 1.7 | 5.2 | 0.00 | 0.37 | 0.01 | 91 | 1007.1 |
| 20260507051503 | 53 | 270 | 1.7 | 5.2 | 0.00 | 0.37 | 0.01 | 91 | 1006.7 |
| 20260507051003 | 53 | 284 | 1.7 | 4.3 | 0.01 | 0.37 | 0.01 | 91 | 1006.7 |
| 20260507050503 | 53 | 287 | 2.6 | 7.8 | 0.01 | 0.37 | 0.01 | 90 | 1006.7 |
| 20260507050003 | 53 | 284 | 4.3 | 8.7 | 0.01 | 0.37 | 0.01 | 90 | 1006.7 |
| 20260507045503 | 53 | 289 | 4.3 | 10.4 | 0.01 | 0.37 | 0.01 | 90 | 1006.7 |
| 20260507045003 | 53 | 292 | 4.3 | 10.4 | 0.01 | 0.37 | 0.01 | 91 | 1006.7 |
| 20260507044503 | 53 | 290 | 4.3 | 8.7 | 0.01 | 0.37 | 0.01 | 91 | 1006.4 |
| 20260507044003 | 53 | 293 | 4.3 | 8.7 | 0.01 | 0.37 | 0.01 | 90 | 1006.4 |
| 20260507043503 | 54 | 293 | 6.1 | 10.4 | 0.01 | 0.37 | 0.01 | 90 | 1006.4 |
| 20260507043003 | 54 | 289 | 5.2 | 10.4 | 0.01 | 0.37 | 0.01 | 90 | 1006.4 |
| 20260507042503 | 54 | 283 | 5.2 | 11.3 | 0.01 | 0.37 | 0.01 | 90 | 1006.7 |
| 20260507042003 | 54 | 283 | 4.3 | 11.3 | 0.01 | 0.37 | 0.01 | 91 | 1006.7 |
| 20260507041503 | 55 | 286 | 5.2 | 10.4 | 0.01 | 0.37 | 0.01 | 92 | 1006.7 |
| 20260507041003 | 55 | 299 | 6.1 | 13.0 | 0.00 | 0.36 | 0.00 | 91 | 1006.7 |
| 20260507040503 | 56 | 304 | 7.0 | 15.6 | 0.00 | 0.36 | 0.00 | 91 | 1006.4 |
| 20260507040004 | 56 | 301 | 7.8 | 15.6 | 0.00 | 0.36 | 0.00 | 91 | 1006.4 |
| 20260507035503 | 57 | 309 | 8.7 | 14.8 | 0.00 | 0.36 | 0.36 | 92 | 1006.0 |
| 20260507035003 | 57 | 307 | 7.8 | 14.8 | 0.00 | 0.36 | 0.36 | 93 | 1006.4 |
| 20260507034503 | 58 | 288 | 5.2 | 11.3 | 0.00 | 0.36 | 0.36 | 94 | 1006.0 |
| 20260507034003 | 58 | 273 | 3.5 | 8.7 | 0.00 | 0.36 | 0.36 | 95 | 1005.7 |
| 20260507033503 | 58 | 267 | 3.5 | 8.7 | 0.00 | 0.36 | 0.36 | 96 | 1005.7 |
| 20260507033004 | 59 | 264 | 3.5 | 9.6 | 0.00 | 0.36 | 0.36 | 97 | 1005.7 |
| 20260507032503 | 59 | 254 | 2.6 | 9.6 | 0.00 | 0.36 | 0.36 | 97 | 1005.4 |
| 20260507032004 | 59 | 222 | 2.6 | 7.8 | 0.00 | 0.36 | 0.36 | 97 | 1005.7 |
| 20260507031525 | 59 | 227 | 2.6 | 7.8 | 0.00 | 0.36 | 0.36 | 97 | 1005.4 |
| 20260507031003 | 59 | 224 | 2.6 | 6.1 | 0.00 | 0.36 | 0.36 | 97 | 1005.4 |
| 20260507030524 | 59 | 209 | 2.6 | 7.8 | 0.00 | 0.36 | 0.36 | 97 | 1005.4 |
| 20260507030003 | 59 | 202 | 2.6 | 7.8 | 0.00 | 0.36 | 0.36 | 97 | 1005.4 |
| 20260507025504 | 59 | 196 | 2.6 | 7.8 | 0.00 | 0.36 | 0.36 | 96 | 1005.0 |
| 20260507025025 | 59 | 189 | 2.6 | 10.4 | 0.00 | 0.36 | 0.36 | 96 | 1005.4 |
| 20260507024503 | 59 | 194 | 3.5 | 10.4 | 0.00 | 0.36 | 0.36 | 96 | 1005.4 |
| 20260507024003 | 59 | 203 | 2.6 | 10.4 | 0.00 | 0.36 | 0.36 | 96 | 1005.4 |
| 20260507023503 | 59 | 202 | 2.6 | 9.6 | 0.00 | 0.36 | 0.36 | 96 | 1005.0 |
| 20260507023003 | 59 | 201 | 3.5 | 9.6 | 0.00 | 0.36 | 0.36 | 96 | 1005.4 |
| 20260507022503 | 59 | 206 | 2.6 | 9.6 | 0.00 | 0.36 | 0.36 | 96 | 1005.0 |
| 20260507022003 | 59 | 200 | 2.6 | 9.6 | 0.00 | 0.36 | 0.36 | 96 | 1005.0 |
| 20260507021503 | 59 | 197 | 2.6 | 9.6 | 0.00 | 0.36 | 0.36 | 96 | 1005.0 |
| 20260507021003 | 59 | 207 | 2.6 | 10.4 | 0.00 | 0.36 | 0.36 | 96 | 1005.0 |
| 20260507020503 | 59 | 203 | 3.5 | 10.4 | 0.00 | 0.36 | 0.36 | 96 | 1005.4 |
| 20260507020004 | 59 | 195 | 2.6 | 9.6 | 0.00 | 0.36 | 0.36 | 96 | 1005.4 |
| 20260507015503 | 59 | 200 | 2.6 | 9.6 | 0.00 | 0.36 | 0.36 | 96 | 1005.4 |
| 20260507015003 | 59 | 205 | 2.6 | 7.8 | 0.00 | 0.36 | 0.36 | 96 | 1005.4 |
| 20260507014503 | 59 | 204 | 2.6 | 9.6 | 0.00 | 0.36 | 0.36 | 96 | 1005.4 |
| 20260507014003 | 59 | 193 | 2.6 | 9.6 | 0.00 | 0.36 | 0.36 | 96 | 1005.4 |
| 20260507013503 | 59 | 194 | 2.6 | 8.7 | 0.00 | 0.36 | 0.36 | 96 | 1005.7 |
| 20260507013003 | 59 | 195 | 3.5 | 10.4 | 0.00 | 0.36 | 0.36 | 96 | 1005.7 |
| 20260507012503 | 59 | 194 | 3.5 | 10.4 | 0.00 | 0.36 | 0.36 | 97 | 1005.7 |
| 20260507012003 | 59 | 199 | 3.5 | 10.4 | 0.00 | 0.36 | 0.36 | 97 | 1005.4 |
| 20260507011503 | 59 | 198 | 2.6 | 10.4 | 0.00 | 0.36 | 0.36 | 97 | 1005.7 |
| 20260507010503 | 59 | 198 | 3.5 | 10.4 | 0.00 | 0.36 | 0.36 | 97 | 1005.7 |
| 20260507010003 | 59 | 196 | 4.3 | 12.2 | 0.00 | 0.36 | 0.36 | 97 | 1005.7 |
| 20260507005503 | 59 | 201 | 3.5 | 12.2 | 0.00 | 0.36 | 0.36 | 97 | 1005.7 |
| 20260507005003 | 59 | 204 | 3.5 | 11.3 | 0.00 | 0.36 | 0.36 | 98 | 1005.4 |
| 20260507004504 | 59 | 206 | 3.5 | 9.6 | 0.00 | 0.36 | 0.36 | 98 | 1005.4 |